CDT,Max TemperatureF,Mean TemperatureF,Min TemperatureF,Max Dew PointF,MeanDew PointF,Min DewpointF,Max Humidity, Mean Humidity, Min Humidity, Max Sea Level PressureIn, Mean Sea Level PressureIn, Min Sea Level PressureIn, Max VisibilityMiles, Mean VisibilityMiles, Min VisibilityMiles, Max Wind SpeedMPH, Mean Wind SpeedMPH, Max Gust SpeedMPH,PrecipitationIn, CloudCover, Events, WindDirDegrees
2013-3-1,35,26,17,28,24,18,100,85,75,30.37,30.30,30.23,10,9,5,14,6,20,0.00,6,,345
2013-3-2,35,24,14,30,23,10,100,89,75,30.38,30.29,30.12,10,7,0,10,7,,0.00,1,Fog,185
2013-3-3,46,35,24,37,31,25,100,83,66,30.12,29.83,29.55,10,8,1,12,6,,0.00,0,,156
2013-3-4,44,38,32,34,33,28,100,80,61,30.14,29.74,29.51,10,10,10,32,12,43,0.00,2,,1
2013-3-5,41,32,24,25,21,16,86,58,45,30.40,30.33,30.13,10,10,10,29,15,36,0.00,0,,339
2013-3-6,42,32,23,32,26,19,93,72,57,30.43,30.29,30.12,10,10,9,16,6,,0.00,1,,137
2013-3-7,64,48,32,37,31,25,80,58,34,30.12,30.02,29.94,10,10,9,22,12,28,0.00,1,,158
2013-3-8,62,52,41,55,46,32,100,81,61,30.03,29.95,29.83,10,9,2,26,13,34,0.00,5,Rain,157
2013-3-9,66,52,39,59,51,34,100,88,47,29.87,29.68,29.55,10,7,1,31,15,36,0.36,6,Rain-Thunderstorm,186
2013-3-10,41,36,30,37,27,23,87,69,56,30.09,29.93,29.71,10,10,10,39,19,46,0.00,7,,341
2013-3-11,55,40,24,37,24,16,81,57,33,30.08,30.01,29.94,10,10,10,18,10,23,0.00,1,,305
2013-3-12,57,46,33,39,31,23,93,61,29,30.36,30.23,30.03,10,10,10,16,7,22,0.00,3,,352
2013-3-13,62,47,32,39,31,25,80,59,35,30.44,30.34,30.23,10,10,10,20,8,24,0.00,0,,158
2013-3-14,78,58,37,46,39,34,87,58,21,30.25,30.16,30.07,10,10,10,14,10,,0.00,0,,232
2013-3-15,86,64,42,50,42,36,87,54,18,30.09,29.88,29.73,10,10,10,23,8,29,0.00,0,,230
2013-3-16,57,48,39,45,38,32,87,64,47,29.97,29.84,29.69,10,8,5,30,15,39,0.00,1,,40
2013-3-17,42,38,35,37,32,28,100,78,70,29.97,29.83,29.66,10,9,4,21,13,29,0.00,8,,62
2013-3-18,57,44,32,39,30,18,100,63,21,30.03,29.94,29.69,10,8,3,20,9,28,0.00,3,Rain,18
2013-3-19,53,42,32,36,28,23,80,58,43,30.28,30.12,30.00,10,10,10,15,8,20,0.00,1,,104
2013-3-20,50,39,28,30,26,19,93,62,37,30.41,30.24,29.96,10,10,9,20,9,22,0.00,0,,70
2013-3-21,57,45,33,36,30,25,81,59,38,29.96,29.73,29.58,10,10,7,26,15,32,0.00,2,,110
2013-3-22,48,40,33,34,32,30,93,78,54,29.95,29.88,29.79,10,9,7,17,12,24,0.00,6,Rain-Thunderstorm,54
2013-3-23,35,34,32,36,34,32,100,98,87,29.98,29.88,29.79,10,4,1,21,12,31,0.80,8,Rain-Snow,40
2013-3-24,39,32,24,32,21,18,100,70,42,30.22,30.13,29.97,10,9,1,31,19,41,0.10,2,Rain-Snow,339
2013-3-25,41,32,23,19,16,10,74,52,31,30.40,30.33,30.22,10,10,10,29,15,34,0.00,1,,336
2013-3-26,55,35,15,27,19,14,93,58,26,30.43,30.31,30.14,10,10,10,17,8,28,0.00,1,,214
2013-3-27,66,52,37,36,28,23,70,44,24,30.14,30.06,30.01,10,10,9,23,12,30,0.00,2,,145
2013-3-28,68,54,39,50,41,32,82,64,46,30.14,30.09,30.04,10,10,10,14,9,,0.00,3,,78
2013-3-29,71,58,44,59,53,45,100,84,57,30.12,30.06,30.00,10,8,2,16,7,22,0.00,5,Thunderstorm,109
2013-3-30,80,64,48,59,51,37,100,74,21,30.00,29.94,29.87,10,7,0,18,7,22,0.00,3,Fog-Thunderstorm,24
2013-3-31,68,57,46,54,42,30,100,63,26,30.09,30.03,29.94,10,10,5,26,10,38,0.05,2,Rain-Thunderstorm,33